Regional Weather Roundup
Issued by NWS Albany, NY

Home | Current Version | Previous Version | Text Only | Print | Product List | Glossary On
Versions: 1 2 3 4 5 6 7 8 9 10 11 12 13 14 15 16 17 18 19 20 21 22 23 24 25 26 27 28 29 30 31 32 33 34 35 36 37 38 39 40 41 42 43 44 45 46 47 48 49 50
000
ASUS41 KALY 201710
RWRALY

NEW YORK STATE HOURLY WEATHER ROUNDUP
NATIONAL WEATHER SERVICE ALBANY NY
1200 PM EST SAT JAN 20 2018

NOTE: "FAIR" INDICATES FEW OR NO CLOUDS BELOW 12,000 FEET WITH NO
SIGNIFICANT WEATHER AND/OR NO OBSTRUCTIONS TO VISIBILITY.

NYZ032-033-038>043-046>054-057>066-NYZ062>081-082-084-201800-
EAST


CITY           SKY/WX    TMP DP  RH WIND       PRES   REMARKS
ALBANY         PTSUNNY   44  25  47 W14       29.80F
GLENS FALLS    FAIR      44  26  49 SW9       29.74F
POUGHKEEPSIE   FAIR      44  24  45 SW18      29.81F
NEWBURGH       PTSUNNY   43  27  52 W14       29.85S
MONTGOMERY     FAIR      46  24  42 W8G17     29.82F
WHITE PLAINS   FAIR      47  25  42 W17G25    29.83F
ISLIP          FAIR      52  25  35 W17G28    29.84F
NEW YORK CITY  PTSUNNY   51  24  34 W14       29.86F
CENTRAL PARK   FAIR      50  25  37 MISG      29.89F
$$

NYZ005>009-017-018-044>046-055-056-201800-
CENTRAL


CITY           SKY/WX    TMP DP  RH WIND       PRES   REMARKS
FULTON         FAIR      43  27  53 W15G30    29.84R
SYRACUSE       PTSUNNY   41  27  57 W22G28    29.84S
ROME           LGT RAIN  41  27  57 W14G23    29.84R
ELMIRA         FAIR      43  26  51 W14G23    29.86F
BINGHAMTON     FAIR      39  24  55 W13G23    29.82S WCI  31
MONTICELLO     FAIR      38  24  57 W10       29.82F WCI  31
$$

NYZ026>034-041>043-087-201800-
NORTH


CITY           SKY/WX    TMP DP  RH WIND       PRES   REMARKS
WATERTOWN      FAIR      38  31  76 SW17G28   29.82R WCI  28
FORT DRUM      NOT AVBL
OGDENSBURG     CLOUDY    39  31  75 SW10G17   29.74S WCI  32
MASSENA        CLOUDY    39  31  72 SW21G29   29.72R WCI  29
SARANAC LAKE   CLOUDY    34  28  79 SW8G20    29.66S WCI  27
PLATTSBURGH    CLOUDY    42  27  55 SW6       29.66S
$$

NYZ001>004-010>016-019>021-085-201800-
WEST


CITY           SKY/WX    TMP DP  RH WIND       PRES   REMARKS
NIAGARA FALLS  FAIR      40  27  59 SW21G26   29.89S WCI  30
BUFFALO        PTSUNNY   38  28  67 SW23G37   29.90S WCI  27
DUNKIRK        FAIR      48  26  42 SW25G36   29.93S
JAMESTOWN      FAIR      36  24  62 SW22      29.92F WCI  25
WELLSVILLE     FAIR      40  25  55 W14G21    29.88F WCI  32
ROCHESTER      PTSUNNY   42  27  55 W21G33    29.86R
PENN YAN       FAIR      42  24  49 SW12G25   29.85S
$$

             KEY
       WCI = WIND CHILL INDEX
       VSB = VISIBILITY
       HX  = HEAT INDEX
$$



USA.gov is the U.S. government's official web portal to all federal, state and local government web resources and services.